{"data":{"norad_id":61965,"epoch":"2026-09-21T00:20:18.102624Z","epoch_age_seconds":141181,"freshness":"FRESH","line1":"1 61965U 24210G   26264.01409841  .00014582  00000+0  53826-3 0  9999","line2":"2 61965  43.0049 149.6995 0001564 260.3671  99.7004 15.27587022104860","mean_motion":15.27587022,"eccentricity":0.0001564,"inclination_deg":43.0049,"raan_deg":149.6995,"arg_perigee_deg":260.3671,"mean_anomaly_deg":99.7004,"bstar":0.00053826,"rev_number":10486,"period_min":94.266315389003,"perigee_km":481.95498350914,"apogee_km":484.10115594295,"semimajor_km":6861.165069726,"source":"CELESTRAK","updated_at":"2026-09-22T09:00:49.459243Z"}}